Location: Unspecified
(46.6701°N, 0.0000°E)
Time: 02:56:18
(UTC+00:00)

NANOSAT C BR1 - Visible Passes

Search period start: 04 April 2026 00:00
Search period end: 14 April 2026 00:00
Orbit: 476 x 483 km, 98.1° (Epoch: 29 March)

Date Brightness Start Highest point End Pass type
(mag) Time Alt. Az. Time Alt. Az. Time Alt. Az.
5 Apr ? 19:52:55 10° WSW 19:53:55 11° W 19:54:54 10° WNW visible
6 Apr ? 19:24:35 10° SSW 19:27:22 22° W 19:30:12 10° NW visible
9 Apr ? 19:39:20 10° SW 19:41:33 16° W 19:43:46 10° NW visible
10 Apr ? 19:11:44 10° SSW 19:14:55 31° W 19:18:07 10° NNW visible
12 Apr ? 19:54:13 10° WSW 19:55:23 11° W 19:56:34 10° WNW visible
13 Apr ? 19:25:44 10° SSW 19:28:35 23° W 19:31:27 10° NW visible
